Location: Prostejov
(49.4670°N, 17.1170°E)
Time: 23:54:07
(UTC+02:00)

ISS - Visible Passes

Search period start: 01 October 2020 00:00
Search period end: 11 October 2020 00:00
Orbit: 419 x 421 km, 51.6° (Epoch: 02 October)

Date Brightness Start Highest point End Pass type
(mag) Time Alt. Az. Time Alt. Az. Time Alt. Az.
01 Oct -3.8 19:30:03 10° WNW 19:33:26 81° NNE 19:35:43 19° ESE visible
01 Oct -1.4 21:07:06 10° W 21:08:41 21° WSW 21:08:41 21° WSW visible
02 Oct -2.9 20:19:40 10° WNW 20:22:52 40° SSW 20:23:18 38° S visible
03 Oct -3.3 19:32:20 10° WNW 19:35:39 57° SSW 19:37:58 18° SE visible
03 Oct -0.7 21:10:20 10° WSW 21:10:57 12° WSW 21:10:57 12° WSW visible
04 Oct -1.6 20:22:21 10° W 20:24:49 19° SW 20:25:41 17° SSW visible
05 Oct -2.0 19:34:44 10° W 19:37:40 27° SW 19:40:31 10° SSE visible
06 Oct -2.5 18:47:17 10° WNW 18:50:28 40° SSW 18:53:38 10° SE visible
07 Oct -0.8 19:37:55 10° WSW 19:39:27 13° SW 19:40:59 10° SSW visible
08 Oct -1.1 18:49:53 10° W 18:52:19 19° SW 18:54:46 10° S visible
